User: anonymous   Login
Location: Chanteloup
(48.8560°N, 2.7390°E)
Time: 15:11:54
(UTC+00:00)
Language:

Cosmos 1697 Rocket - Orbit

View from above orbital plane
View from above orbital plane
View from above satellite
View from above satellite

Ground track
Ground track

The orbit data is extracted from the following two-line orbital elements,

1 16182U 85097B   22020.52069956 -.00000224  00000-0 -88923-4 0  9999
2 16182  71.0029  76.7998 0006399  18.9206  81.0657 14.16264987873843
Epoch (UTC): 20 January 2022 12:29:48
Eccentricity: 0.0006399
inclination: 71.0029°
perigee height: 833 km
apogee height: 842 km
right ascension of ascending node: 76.7998°
argument of perigee: 18.9206°
revolutions per day: 14.16264987
mean anomaly at epoch: 81.0657°
orbit number at epoch: 87384

The dashed part of the orbit path shows where the satellite is in the earth's shadow,  

DLR